sat.trackr.live / text

‹ back to catalog

STARLINK-11621 [DTC]

NORAD 63273 · 2025-053J

PAYLOAD ACTIVE UNKNOWN

§ Identity

Operator
Country
US
Launch date
2025-03-15
Launch site
AFETR
Launch vehicle
Mass (kg)
RCS (m²)

Purposes: comms

External: N2YO · Heavens-Above · Gunter

§ Orbital elements

Epoch: 2026-09-20T18:14:38.736384Z

Period
91.67 min
Inclination
43.0016°
Eccentricity
0.0002179
Mean motion
15.70871395 rev/d
Perigee alt
354.9 km
Apogee alt
357.9 km
Semi-major
6,734.5 km
B*
1.0121e-3
RAAN
15.9963°
Arg perigee
285.0520°
Mean anomaly
75.0107°
Rev number
8,835

§ Raw data

STARLINK-11621 [DTC]1 63273U 25053J   26263.76017056  .00131668  00000+0  10121-2 0  99982 63273  43.0016  15.9963 0002179 285.0520  75.0107 15.70871395 88351

JSON: /api/v1/satellites/63273 · /tle

For live sub-satellite position, see the globe view (requires WebGL).

§ Visibility from observer

Set your observer location to see the next 7 days of passes ≥ 10°. The values pass through the URL so the page stays shareable.

No JS? Fill the form by hand. The geolocation button needs JavaScript.